ERS-1

Last updated on Thu Mar 05 2026 00:02:21 GMT+0000 (Coordinated Universal Time)

1 21574U 91050A 26063.48399711 .00000476 00000+0 16692-3 0 9996 2 21574 98.7885 81.5877 0031341 216.0960 143.8111 14.39444979814981
UTC large
Height (km)
Speed (km/s)
/
Latitude / Longitude
Inclination (degrees)
Orbital Period (minutes)
Azimuth
Elevation
Range (km)
Doppler Factor

Next 0 passes for location: London (51.5072 / 0.1276)

Sorry there are no passes over London.